Temp
59 59 58 57 57 58 57 57 56 57 57 56 58 57 57 57 57 56 56 57 57 57 58 58 58 59 59 59 60 60 61 60 59 59 59 59 58 58 59 58 59 60
58 58 59 57 57 58 57 58 57 58 57 56 57 56 56 57 57 56 56 56 57 56 57 58 58 58 58 59 59 59 58 58 57 58 58 58 57 58 59 58 59 58
57 57 57 57 58 57 57 57 57 57 57 56 56 56 57 56 55 54 54 56 56 56 56 57 57 57 57 57 58 58 57 56 56 56 57 57 56 58 58 58 58 59
57 58 58 58 58 58 57 57 56 56 56 57 56 57 57 57 55 55 56 57 55 55 55 56 56 57 57 57 57 56 55 55 55 55 55 55 56 56 55 57 56 57
57 56 57 57 58 58 57 57 56 56 56 56 55 56 57 56 55 54 54 54 54 54 55 55 55 56 56 56 56 56 56 55 54 55 56 54 55 56 55 56 56 56
56 57 58 58 58 57 57 57 57 56 55 55 56 56 54 54 54 54 54 54 54 54 55 55 55 54 55 55 55 55 55 56 54 55 56 55 55 55 56 55 55 56
56 57 57 57 56 57 57 56 56 56 56 56 55 55 54 54 54 53 53 54 54 55 55 55 55 55 54 55 55 54 54 54 54 55 56 55 56 55 55 56 56 55
57 57 57 57 57 56 56 56 56 56 55 55 56 54 54 55 54 53 53 54 55 54 54 54 54 54 53 54 55 55 54 55 54 55 55 54 55 55 55 55 54 55
56 57 57 57 57 56 56 56 56 55 56 56 55 53 53 54 53 53 53 53 53 53 53 53 53 53 53 54 54 55 55 54 54 54 56 56 56 55 55 54 55 54
55 55 56 57 57 56 56 55 55 55 55 55 54 53 54 52 52 52 52 53 53 53 53 53 53 53 53 53 53 54 55 54 53 53 54 55 56 55 55 55 55 55
56 56 56 56 56 56 56 55 55 55 55 55 53 53 53 53 52 51 52 53 54 54 53 53 53 52 53 53 52 52 53 54 53 53 53 53 54 54 55 54 55 56
55 56 56 56 56 56 56 56 55 55 54 53 54 54 52 52 52 53 54 52 52 52 53 52 52 52 53 53 53 52 52 52 53 53 53 53 53 53 54 53 55 54
56 56 55 55 56 55 55 55 55 54 55 54 53 54 54 53 52 53 53 52 52 52 53 52 52 52 52 52 52 52 53 53 53 52 52 53 53 53 54 53 53 54
55 56 55 55 55 55 54 54 54 54 54 53 54 54 54 54 54 54 53 53 52 52 52 52 52 52 51 51 52 52 53 53 53 54 54 54 54 54 53 53 53 53
56 56 55 55 55 54 53 53 53 53 53 53 54 53 54 53 53 54 54 54 53 53 53 53 53 53 53 53 53 53 53 54 53 54 54 55 55 55 54 54 54 53
55 55 55 55 55 54 54 54 53 53 53 53 52 52 53 53 53 53 54 54 55 54 53 53 53 53 54 52 52 55 52 54 53 53 54 54 55 56 55 54 54 53
53 53 53 53 53 53 53 54 54 54 54 53 53 52 52 52 52 52 51 52 53 54 54 53 53 54 49 46 45 48 52 53 54 53 53 54 54 55 56 57 56 55
50 50 50 50 51 51 51 51 51 52 52 52 53 53 53 53 53 52 52 51 51 52 52 53 53 49 43 44 45 45 47 52 53 54 54 53 54 54 55 55 56 56
50 49 49 49 49 50 50 50 50 49 49 49 49 51 52 51 51 52 52 52 52 52 52 51 51 43 40 40 41 42 44 47 53 53 54 54 54 54 54 55 55 55
50 50 48 49 49 49 49 50 49 48 47 47 48 49 48 49 49 50 50 51 51 51 51 51 51 44 41 41 41 40 41 45 52 53 53 54 54 55 55 55 55 55
49 48 48 48 49 49 49 49 48 48 47 47 46 46 46 46 46 47 48 48 48 49 49 49 48 41 40 40 41 40 40 44 49 50 52 53 53 53 54 54 55 55
48 47 46 47 48 47 47 47 48 47 46 46 48 47 46 46 46 46 45 46 46 47 47 47 47 41 41 41 41 41 43 50 49 50 50 51 52 53 53 53 54 54
47 46 45 45 46 45 45 46 46 46 45 45 45 46 46 45 44 44 45 45 46 46 45 45 46 43 41 41 41 41 45 49 50 50 50 50 51 52 53 53 54 55
47 47 46 46 45 44 43 43 44 46 45 45 44 43 44 45 45 44 44 44 44 44 46 44 45 44 41 41 41 41 44 48 49 49 50 51 51 52 52 53 53 52
47 47 45 45 44 44 44 43 43 43 44 44 44 44 43 44 45 44 44 44 43 43 46 44 43 44 41 40 40 41 44 47 47 48 48 49 51 51 52 52 52 51
46 46 45 45 44 45 45 44 44 43 42 42 43 44 43 43 43 42 41 42 42 42 42 42 43 43 43 40 41 40 41 45 46 46 46 47 48 49 50 51 52 52
MSLP
1017.34 1017.62 1017.86 1018.14 1018.38 1018.50 1018.66 1018.86 1019.02 1018.98 1019.10 1019.14 1019.02 1019.14 1019.22 1019.38 1019.46 1019.46 1019.58 1019.70 1019.82 1019.94 1020.02 1020.14 1020.26 1020.34 1020.46 1020.54 1020.66 1020.78 1020.90 1021.06 1021.22 1021.30 1021.38 1021.50 1021.66 1021.74 1021.90 1021.94 1021.98 1021.98
1017.58 1017.74 1017.98 1018.18 1018.42 1018.58 1018.66 1018.66 1018.78 1018.86 1019.02 1019.10 1019.14 1019.22 1019.42 1019.42 1019.50 1019.50 1019.54 1019.62 1019.82 1019.98 1020.10 1020.22 1020.30 1020.42 1020.54 1020.62 1020.74 1020.86 1021.02 1021.18 1021.30 1021.42 1021.42 1021.54 1021.62 1021.74 1021.78 1021.86 1021.94 1022.14
1017.62 1017.82 1017.94 1018.06 1018.22 1018.42 1018.58 1018.70 1018.74 1018.86 1018.90 1019.06 1019.22 1019.30 1019.38 1019.46 1019.50 1019.58 1019.62 1019.62 1019.74 1019.94 1020.10 1020.22 1020.34 1020.46 1020.58 1020.66 1020.78 1020.90 1021.02 1021.14 1021.26 1021.42 1021.46 1021.50 1021.66 1021.70 1021.82 1021.98 1022.06 1022.10
1017.54 1017.58 1017.74 1017.94 1018.10 1018.30 1018.54 1018.66 1018.82 1018.90 1019.02 1019.06 1019.18 1019.26 1019.34 1019.46 1019.54 1019.58 1019.66 1019.74 1019.82 1019.98 1020.10 1020.22 1020.30 1020.46 1020.54 1020.66 1020.78 1020.94 1021.02 1021.06 1021.18 1021.30 1021.42 1021.66 1021.70 1021.70 1021.86 1021.98 1022.10 1022.22
1017.58 1017.82 1017.98 1018.10 1018.26 1018.42 1018.58 1018.66 1018.82 1018.94 1018.98 1019.06 1019.22 1019.30 1019.34 1019.46 1019.54 1019.62 1019.74 1019.86 1019.94 1020.02 1020.18 1020.30 1020.38 1020.50 1020.62 1020.74 1020.82 1020.94 1021.10 1021.14 1021.30 1021.26 1021.26 1021.42 1021.66 1021.66 1021.82 1021.90 1021.98 1022.10
1017.74 1017.90 1018.10 1018.22 1018.38 1018.50 1018.66 1018.70 1018.82 1018.94 1019.02 1019.06 1019.14 1019.26 1019.34 1019.46 1019.50 1019.62 1019.74 1019.86 1019.98 1020.06 1020.14 1020.26 1020.38 1020.54 1020.58 1020.66 1020.78 1020.94 1021.10 1021.14 1021.34 1021.34 1021.38 1021.46 1021.62 1021.74 1021.82 1021.90 1021.94 1022.02
1017.78 1017.98 1018.14 1018.34 1018.50 1018.58 1018.62 1018.82 1018.90 1018.98 1019.02 1019.06 1019.26 1019.30 1019.38 1019.46 1019.50 1019.58 1019.70 1019.82 1019.94 1020.06 1020.10 1020.22 1020.34 1020.50 1020.66 1020.70 1020.78 1020.98 1021.22 1021.34 1021.42 1021.50 1021.46 1021.66 1021.62 1021.70 1021.90 1021.94 1021.98 1022.06
1017.70 1017.86 1018.06 1018.22 1018.34 1018.58 1018.66 1018.82 1018.90 1019.02 1019.10 1019.22 1019.18 1019.42 1019.50 1019.50 1019.58 1019.70 1019.74 1019.82 1019.90 1020.10 1020.22 1020.34 1020.46 1020.58 1020.74 1020.78 1020.78 1020.98 1021.26 1021.42 1021.46 1021.50 1021.50 1021.58 1021.58 1021.66 1021.86 1021.98 1022.10 1022.18
1017.66 1017.78 1017.90 1018.02 1018.22 1018.50 1018.66 1018.74 1018.90 1019.06 1019.18 1019.14 1019.30 1019.50 1019.66 1019.62 1019.70 1019.74 1019.82 1019.90 1019.98 1020.22 1020.34 1020.46 1020.54 1020.66 1020.82 1020.82 1020.90 1020.98 1021.18 1021.46 1021.58 1021.50 1021.42 1021.50 1021.58 1021.70 1021.86 1022.06 1022.14 1022.34
1017.82 1017.98 1018.06 1018.18 1018.22 1018.38 1018.50 1018.74 1018.94 1019.14 1019.30 1019.30 1019.46 1019.62 1019.62 1019.86 1019.86 1019.86 1019.90 1019.94 1020.02 1020.22 1020.38 1020.50 1020.62 1020.74 1020.90 1020.98 1021.06 1021.06 1021.18 1021.38 1021.54 1021.66 1021.70 1021.66 1021.62 1021.74 1021.90 1021.98 1022.02 1022.22
1018.06 1018.14 1018.26 1018.42 1018.50 1018.50 1018.58 1018.82 1019.02 1019.18 1019.30 1019.38 1019.58 1019.66 1019.78 1019.86 1019.94 1019.98 1019.98 1020.02 1020.06 1020.22 1020.38 1020.50 1020.66 1020.78 1020.86 1021.02 1021.18 1021.30 1021.30 1021.34 1021.50 1021.66 1021.74 1021.82 1021.82 1021.82 1021.90 1021.90 1021.98 1022.02
1018.34 1018.38 1018.42 1018.54 1018.70 1018.54 1018.58 1018.74 1019.02 1019.18 1019.30 1019.50 1019.54 1019.62 1019.86 1019.94 1019.94 1020.02 1019.94 1019.98 1020.10 1020.22 1020.38 1020.54 1020.70 1020.78 1020.86 1020.94 1021.14 1021.30 1021.42 1021.58 1021.66 1021.70 1021.78 1021.86 1021.94 1021.98 1021.98 1022.02 1021.98 1022.10
1018.14 1018.50 1018.66 1018.78 1018.98 1018.98 1018.86 1018.90 1019.02 1019.22 1019.30 1019.42 1019.58 1019.54 1019.62 1019.78 1019.94 1019.94 1020.02 1020.02 1020.10 1020.22 1020.30 1020.46 1020.66 1020.82 1020.94 1021.06 1021.18 1021.30 1021.38 1021.50 1021.66 1021.78 1021.90 1021.94 1022.06 1022.18 1022.38 1022.42 1022.34 1022.30
1018.22 1018.50 1018.78 1018.98 1019.10 1019.22 1019.46 1019.46 1019.38 1019.30 1019.38 1019.50 1019.54 1019.50 1019.54 1019.62 1019.70 1019.78 1020.02 1020.06 1020.14 1020.22 1020.42 1020.46 1020.62 1020.78 1020.94 1021.10 1021.22 1021.30 1021.34 1021.42 1021.54 1021.66 1021.82 1022.02 1022.06 1022.22 1022.38 1022.46 1022.58 1022.66
1018.26 1018.26 1018.82 1019.14 1019.18 1019.38 1019.58 1019.74 1019.58 1019.54 1019.54 1019.58 1019.62 1019.62 1019.66 1019.70 1019.78 1019.82 1019.82 1019.94 1020.14 1020.30 1020.34 1020.46 1020.46 1020.62 1020.82 1020.94 1020.98 1021.14 1021.22 1021.26 1021.42 1021.50 1021.62 1021.78 1021.98 1022.10 1022.22 1022.30 1022.46 1022.58
1018.58 1018.78 1019.02 1019.26 1019.42 1019.54 1019.66 1019.70 1019.70 1019.74 1019.78 1019.74 1019.82 1019.90 1019.86 1019.86 1019.86 1019.90 1019.90 1019.86 1019.90 1020.10 1020.30 1020.42 1020.38 1020.54 1020.70 1020.86 1020.98 1020.94 1021.02 1021.14 1021.26 1021.34 1021.46 1021.58 1021.70 1021.86 1022.02 1022.18 1022.26 1022.42
1019.26 1019.66 1019.74 1019.86 1020.14 1020.18 1020.06 1019.98 1019.98 1019.98 1020.06 1020.10 1020.14 1020.14 1020.22 1020.22 1020.22 1020.22 1020.30 1020.26 1020.06 1020.02 1020.10 1020.34 1020.62 1020.98 1021.02 1021.06 1021.14 1021.26 1021.18 1021.02 1020.98 1021.14 1021.34 1021.42 1021.50 1021.58 1021.66 1021.74 1021.90 1022.10
1020.06 1020.14 1020.34 1020.62 1020.66 1020.74 1020.66 1020.70 1020.66 1020.62 1020.82 1020.90 1020.74 1020.62 1020.74 1020.66 1020.58 1020.66 1020.58 1020.58 1020.54 1020.46 1020.38 1020.50 1020.66 1020.98 1021.06 1021.14 1021.22 1021.30 1021.46 1021.42 1021.38 1021.26 1021.30 1021.34 1021.42 1021.54 1021.58 1021.66 1021.66 1021.74
1020.50 1020.74 1021.02 1021.02 1021.14 1021.18 1021.14 1021.22 1021.30 1021.42 1021.62 1021.62 1021.58 1021.62 1021.34 1021.22 1021.30 1021.02 1020.98 1021.02 1020.82 1020.70 1020.86 1021.10 1021.46 1021.82 1021.62 1021.62 1021.70 1021.74 1021.66 1021.46 1021.38 1021.46 1021.46 1021.50 1021.58 1021.62 1021.66 1021.66 1021.74 1021.78
1020.94 1021.10 1021.46 1021.58 1021.54 1021.50 1021.46 1021.66 1021.86 1022.18 1022.38 1022.42 1022.34 1022.22 1022.14 1022.02 1021.86 1021.70 1021.62 1021.54 1021.50 1021.38 1021.46 1021.82 1022.14 1022.34 1022.06 1021.98 1021.90 1021.78 1021.70 1021.70 1021.70 1021.66 1021.58 1021.58 1021.58 1021.58 1021.62 1021.58 1021.62 1021.70
1021.50 1021.66 1021.90 1022.02 1022.10 1022.10 1021.98 1022.10 1022.46 1022.70 1022.74 1022.82 1022.82 1022.94 1022.90 1022.78 1022.62 1022.42 1022.30 1022.18 1022.14 1022.10 1022.10 1022.34 1022.74 1022.58 1022.26 1022.18 1022.18 1022.14 1021.94 1021.70 1021.62 1021.62 1021.70 1021.74 1021.78 1021.78 1021.70 1021.70 1021.70 1021.86
1022.06 1022.06 1022.26 1022.46 1022.54 1022.70 1022.62 1022.58 1022.78 1023.14 1023.38 1023.30 1023.06 1023.02 1023.10 1023.10 1022.98 1022.86 1022.78 1022.70 1022.66 1022.54 1022.50 1022.74 1022.98 1022.94 1022.70 1022.50 1022.26 1022.14 1022.10 1022.02 1022.06 1021.98 1021.86 1021.74 1021.62 1021.66 1021.78 1021.86 1021.90 1021.90
1022.50 1022.38 1022.62 1022.86 1022.94 1023.06 1023.18 1023.10 1023.18 1023.30 1023.54 1023.74 1023.58 1023.38 1023.26 1023.30 1023.38 1023.34 1023.26 1023.10 1023.10 1023.10 1023.14 1023.30 1023.26 1023.26 1023.06 1022.86 1022.66 1022.46 1022.14 1022.26 1022.22 1022.18 1022.14 1022.10 1021.98 1021.86 1021.86 1021.82 1021.86 1021.90
1022.86 1022.82 1022.94 1023.10 1022.98 1023.10 1023.54 1023.58 1023.54 1023.62 1023.78 1023.98 1024.06 1023.90 1023.70 1023.62 1023.50 1023.30 1023.34 1023.42 1023.46 1023.54 1023.66 1023.78 1023.82 1023.74 1023.62 1023.46 1023.30 1023.06 1022.90 1022.78 1022.74 1022.50 1022.26 1022.10 1021.94 1021.82 1021.86 1021.82 1021.74 1021.70
1023.10 1023.26 1023.42 1023.58 1023.78 1023.98 1023.98 1024.02 1024.10 1024.18 1024.22 1024.10 1024.18 1024.22 1024.18 1023.90 1023.50 1023.34 1023.38 1023.54 1023.74 1023.94 1023.98 1024.06 1024.14 1024.06 1023.98 1023.94 1023.78 1023.62 1023.38 1023.18 1023.06 1022.94 1022.70 1022.62 1022.42 1022.10 1021.82 1021.78 1021.66 1021.62
1023.50 1023.62 1023.86 1024.06 1024.22 1024.34 1024.38 1024.38 1024.38 1024.30 1024.14 1024.22 1024.54 1024.66 1024.58 1024.22 1023.98 1023.86 1023.82 1023.98 1024.06 1024.02 1024.14 1024.26 1024.26 1024.26 1024.18 1024.10 1024.02 1023.94 1023.78 1023.58 1023.38 1023.18 1023.14 1023.10 1022.90 1022.66 1022.30 1021.90 1021.78 1021.58
Wind_Speed
7 5 6 6 5 6 6 5 3 4 3 3 4 4 4 2 2 3 4 4 4 5 4 4 3 3 3 3 3 3 3 3 3 4 5 5 4 6 5 5 5 5
6 6 4 5 5 4 4 5 6 5 5 3 3 4 2 3 2 3 4 5 5 5 5 5 4 4 4 4 4 4 3 3 4 2 4 5 4 5 6 6 6 4
7 6 7 7 7 6 6 4 4 4 5 4 3 3 4 2 3 3 4 5 5 5 5 5 5 5 5 5 5 4 4 5 4 4 4 5 4 5 4 5 5 6
6 8 8 7 7 8 6 5 3 3 4 5 4 4 4 3 3 4 4 4 5 4 4 5 5 5 5 5 5 5 4 4 4 5 5 4 3 4 5 5 4 4
6 5 4 5 5 6 5 5 5 4 4 4 4 3 5 4 4 4 4 4 4 4 4 5 5 5 5 5 5 6 4 4 3 4 5 5 3 4 4 5 6 5
3 3 4 5 6 7 6 6 6 5 4 4 5 4 4 3 4 4 4 5 4 4 5 5 5 4 4 5 5 5 4 5 4 5 5 5 4 4 3 4 6 6
4 3 5 4 5 5 7 5 5 4 4 4 4 4 4 4 4 4 4 5 5 4 5 5 5 4 4 4 5 5 5 5 5 5 6 4 5 5 4 5 5 5
4 4 5 5 6 5 6 6 6 5 5 4 4 3 3 5 4 3 4 5 5 5 5 5 5 5 4 4 6 6 5 3 5 5 5 5 4 5 4 4 4 5
5 5 6 7 7 6 6 6 5 5 4 6 5 4 2 3 4 4 4 4 5 5 5 5 5 5 4 5 5 6 6 4 4 4 5 5 4 4 5 4 5 4
4 3 4 5 6 6 6 5 4 4 3 5 4 3 5 3 3 4 4 4 5 4 4 4 4 4 4 4 4 5 6 6 5 4 4 4 5 5 4 4 6 5
4 3 4 3 3 5 6 5 4 4 3 5 5 3 3 4 3 3 4 4 5 5 4 4 4 5 5 4 4 3 5 5 5 5 4 4 4 4 4 5 4 4
4 3 3 3 3 5 6 6 5 4 4 3 4 5 3 3 4 2 3 4 4 4 3 4 4 4 4 5 5 5 4 4 4 5 4 4 3 3 4 5 5 5
6 4 3 4 3 1 3 4 4 4 4 4 3 4 5 4 3 4 2 4 3 3 3 3 3 3 2 3 4 5 5 5 4 4 4 3 2 1 1 1 1 3
6 6 4 3 4 5 5 4 2 3 3 3 3 4 3 3 3 3 3 3 3 3 3 3 3 3 3 3 3 4 4 4 4 3 3 2 1 1 1 1 1 1
4 6 5 3 4 5 3 2 2 2 2 2 2 2 1 1 1 2 2 2 2 2 2 2 3 3 4 4 5 5 4 5 4 4 3 2 2 2 1 1 0 1
7 6 6 5 6 6 4 4 4 4 4 3 3 2 1 0 1 1 2 3 2 1 1 1 2 3 2 4 3 4 6 4 4 4 4 4 3 2 3 3 3 3
10 9 9 10 7 5 6 7 6 6 6 5 5 5 5 4 4 4 3 1 1 1 0 2 2 4 6 5 5 5 1 3 4 4 4 4 4 4 4 4 4 4
10 10 11 9 9 8 8 7 8 9 8 7 7 7 6 6 7 5 6 5 3 2 2 3 3 6 7 5 3 2 3 3 3 1 2 3 4 5 4 4 5 5
11 12 10 10 10 9 9 9 10 11 10 10 9 7 6 8 6 8 8 7 7 7 7 7 8 13 13 13 11 8 4 2 2 2 3 3 3 4 4 5 4 5
11 12 12 10 10 10 11 11 11 10 9 8 8 8 8 8 8 9 8 9 8 7 8 9 10 13 14 14 12 11 9 4 3 3 3 4 4 5 5 5 5 5
10 11 12 10 11 11 11 12 11 9 10 8 7 7 8 8 8 8 8 8 9 8 8 10 10 16 16 16 14 12 10 6 5 4 4 5 5 4 5 5 6 5
10 11 11 11 10 10 12 12 10 9 9 7 6 6 5 5 7 8 9 9 9 9 9 10 10 16 16 17 16 15 10 6 6 5 5 5 6 6 6 5 5 5
9 10 11 9 8 10 10 10 10 10 9 7 7 6 7 7 6 7 7 8 9 9 9 8 9 13 15 16 16 16 12 8 8 7 6 6 6 7 6 5 5 5
8 9 9 9 10 11 9 9 8 7 8 7 7 7 7 6 5 6 7 8 9 9 8 8 7 9 13 13 14 14 10 7 6 6 7 7 7 7 6 6 7 8
7 8 8 8 8 6 6 6 6 6 5 6 6 6 6 5 6 7 7 8 7 7 10 9 7 8 11 11 12 11 9 6 6 5 6 6 7 8 7 5 6 6
6 8 8 7 6 5 5 4 3 4 6 6 5 4 5 5 5 6 7 7 7 7 7 7 7 7 8 11 10 10 10 6 5 5 6 6 7 7 8 8 7 7
Wind_Direction
146 149 149 145 151 152 151 155 173 149 159 159 151 177 157 157 114 114 116 111 113 107 111 115 115 119 120 121 134 136 153 140 128 156 162 151 147 155 163 168 174 168
145 140 135 131 131 142 158 163 163 158 161 165 155 137 126 117 95 108 123 109 103 108 118 113 105 108 111 112 116 116 95 104 107 109 141 152 169 169 173 174 170 136
140 141 149 155 159 163 164 158 152 154 151 154 133 128 127 112 93 78 95 108 103 102 102 112 108 107 112 113 110 108 120 126 129 129 128 159 165 175 172 157 144 161
159 158 159 157 155 156 156 142 138 136 128 130 142 139 127 116 102 91 80 86 102 92 95 98 112 114 116 119 113 102 117 110 136 133 118 114 144 152 151 148 138 147
156 151 146 143 143 140 142 143 153 161 157 144 126 123 122 122 110 101 101 88 93 101 91 93 90 97 114 113 120 119 115 114 105 117 116 105 99 130 146 144 148 155
133 136 139 140 146 146 149 157 162 159 149 138 145 127 124 125 117 113 117 114 103 104 102 95 91 75 84 96 93 93 107 103 88 99 96 101 92 73 105 121 134 147
141 130 126 128 133 148 146 154 155 153 157 145 120 128 135 119 110 115 118 121 115 105 110 109 105 90 73 87 87 83 69 98 97 93 106 95 101 83 77 103 113 135
122 124 139 138 137 142 143 149 151 154 150 132 132 145 135 129 115 116 115 117 109 106 101 101 100 104 102 104 109 99 83 79 109 106 101 93 92 99 87 94 104 119
139 150 145 142 137 142 147 149 147 147 151 139 141 132 98 117 131 124 120 108 102 101 105 106 112 109 106 112 117 119 117 101 101 122 125 122 111 120 119 122 105 114
108 111 125 137 141 149 148 139 134 137 138 129 135 132 117 90 103 116 107 107 104 99 100 107 103 106 99 99 114 128 125 121 112 97 91 120 139 145 136 126 131 112
92 102 114 123 144 141 133 129 133 132 128 133 126 114 122 114 91 94 97 110 124 134 129 128 130 124 117 116 113 105 121 128 124 118 116 122 146 158 147 136 136 135
64 73 102 123 170 146 143 141 139 132 126 121 133 131 116 119 129 112 127 120 130 135 128 141 143 139 138 145 135 122 107 104 112 122 137 142 155 186 163 156 149 151
104 66 49 56 28 27 101 121 128 131 133 136 142 140 148 145 145 138 137 138 147 141 130 134 132 130 125 127 137 136 135 133 125 115 120 132 171 274 355 5 80 117
103 92 65 50 61 50 28 30 64 100 124 134 133 129 135 157 174 168 160 139 152 136 126 132 130 134 128 125 134 151 144 142 145 136 126 116 62 10 37 46 55 44
110 99 89 62 83 86 74 57 48 58 69 99 104 97 94 173 181 153 153 145 116 113 128 127 147 172 164 158 149 162 164 165 159 145 148 153 159 193 273 240 156 161
86 72 74 68 47 58 57 53 46 36 26 33 44 58 57 54 103 136 158 179 174 119 93 164 176 176 184 180 193 167 168 161 151 157 161 169 179 205 260 243 229 198
60 53 56 51 43 44 50 51 50 52 46 36 33 37 40 37 54 43 20 12 138 147 338 331 4 38 30 9 353 352 4 165 171 177 170 171 179 192 229 250 251 215
64 65 61 55 52 44 46 46 48 48 37 25 30 37 35 50 54 53 50 32 31 37 40 3 4 20 24 47 50 8 2 356 347 284 211 195 191 196 224 232 251 260
63 60 56 57 51 50 48 47 45 44 34 25 23 10 27 44 36 46 43 38 44 46 36 26 30 17 15 10 6 5 0 1 6 17 332 301 284 261 249 244 243 254
64 65 57 50 50 51 52 49 44 41 35 31 25 23 29 32 33 40 40 39 35 37 41 40 37 16 25 24 22 18 7 352 303 295 263 253 252 250 254 257 252 255
58 58 56 48 46 44 50 52 47 38 32 28 33 31 25 27 30 37 35 39 35 38 52 47 31 24 29 28 27 22 5 4 359 349 324 302 283 255 251 252 256 250
54 61 57 49 46 44 46 47 44 38 27 10 31 41 37 36 39 44 40 39 35 38 49 46 32 29 30 29 26 19 19 31 16 358 331 316 303 291 274 264 255 239
52 62 64 55 56 57 48 47 39 33 26 12 23 31 39 37 40 46 42 45 41 40 44 41 32 25 30 30 27 20 23 16 11 1 349 329 308 304 303 291 266 239
54 56 63 61 51 52 47 47 44 42 37 19 21 15 31 28 36 48 45 45 43 38 37 42 31 27 33 31 28 22 23 20 3 357 340 338 326 324 323 315 303 301
60 63 62 61 66 67 64 67 65 65 46 39 23 15 15 12 24 40 39 39 39 40 36 39 27 18 23 28 32 27 21 10 9 0 347 339 330 318 317 312 309 306
61 65 63 62 65 64 60 68 87 74 68 67 38 12 359 15 26 42 45 35 24 28 28 31 26 12 10 14 25 27 23 13 1 10 356 337 330 320 316 311 303 298